User: anonymous   Login
Location: CNYAC Observatory
(43.2150°N, 74.9500°W)
Time: 07:56:44
(UTC-04:00)
Language:

Cosmos 1300 Rocket - Orbit

View from above orbital plane
View from above orbital plane
View from above satellite
View from above satellite

Ground track
Ground track

The orbit data is extracted from the following two-line orbital elements,

1 12786U 81082B   15181.05917498  .00000120  00000-0  11270-4 0  9990
2 12786 082.4899 284.4454 0019191 104.1299 256.2051 14.84483420828269
Epoch (UTC): 30 June 2015 01:25:12
Eccentricity: 0.0019191
inclination: 82.4899°
perigee height: 602 km
apogee height: 628 km
right ascension of ascending node: 284.4454°
argument of perigee: 104.1299°
revolutions per day: 14.84483420
mean anomaly at epoch: 256.2051°
orbit number at epoch: 82826

The dashed part of the orbit path shows where the satellite is in the earth's shadow,  

DLR